Chanute, KS

8:19 AM CDT on April 24, 2017 (GMT -0500)
Chanute Martin Johnson

Weather History for KCNU - June, 2014

Change the Weather History Date:

Saturday, June 7, 2014

  Actual Average Record
Temperature  
Mean Temperature 74 °F 72 °F  
Max Temperature 82 °F 82 °F 96 °F (1963)
Min Temperature 65 °F 62 °F 47 °F (1935)
Degree Days  
Heating Degree Days 0 0  
Month to date heating degree days 0 4  
Since 1 June heating degree days 0 4  
Since 1 July heating degree days 5090 4481  
Cooling Degree Days 9 8  
Month to date cooling degree days 73 48  
Year to date cooling degree days 265 181  
Since 1 June cooling degree days 73 48  
Growing Degree Days 22 (Base 50)    
Moisture  
Dew Point 65 °F    
Average Humidity 71    
Maximum Humidity 87    
Minimum Humidity 54    
Precipitation  
Precipitation 0.77 in 0.24 in 2.04 in (1938)
Month to date precipitation 5.06 1.66  
Year to date precipitation 14.52 18.06  
Sea Level Pressure  
Sea Level Pressure 29.85 in    
Wind  
Wind Speed 11 mph (WSW)    
Max Wind Speed 29 mph    
Max Gust Speed 39 mph    
Visibility 8 miles    
Events Rain , Thunderstorm    
T = Trace of Precipitation, MM = Missing Value Source: NWS Daily Summary

Daily Weather History Graph

Daily Weather History Graph

Search for Another Location

Airport or City:

Trip Planner

Search our weather history database for the weather conditions in past years. The results will help you decide how hot, cold, wet, or windy it might be!

Date:

Astronomy

Jun. 07, 2014 Rise Set
Actual Time 6:00 AM CDT 8:41 PM CDT
Civil Twilight 5:29 AM CDT 9:12 PM CDT
Nautical Twilight 4:50 AM CDT 9:51 PM CDT
Astronomical Twilight 4:07 AM CDT 10:34 PM CDT
Moon 3:06 PM CDT (6/7) 2:16 AM CDT (6/7)
Length of Visible Light 15h 43m
Length of Day
14h 41m
Waxing Gibbous, 68% of the Moon is Illuminated
Jun 7
Waxing Gibbous
Jun 12
Full
Jun 19
Last Quarter
Jun 27
New
Jul 5
First Quarter

Hourly Weather History & Observations

Time (CDT) Temp. Heat Index Dew Point Humidity Pressure Visibility Wind Dir Wind Speed Gust Speed Precip Events Conditions
12:15 AM 72.0 °F - 69.1 °F 91% 29.91 in 10.0 mi ESE 4.6 mph - N/A   Mostly Cloudy
12:23 AM 72.0 °F - 69.1 °F 91% 29.92 in 10.0 mi East 5.8 mph - N/A   Mostly Cloudy
12:39 AM 72.0 °F - 69.1 °F 91% 29.91 in 10.0 mi East 5.8 mph - 0.00 in Rain Light Rain
12:52 AM 72.0 °F - 69.1 °F 91% 29.87 in 10.0 mi SE 5.8 mph - 0.00 in Rain Light Rain
1:52 AM 71.1 °F - 69.1 °F 93% 29.84 in 7.0 mi ESE 6.9 mph - 0.01 in   Scattered Clouds
2:48 AM 71.6 °F - 69.8 °F 94% 29.86 in 9.0 mi SE 11.5 mph - 0.00 in Rain , Thunderstorm Light Rain
2:52 AM 71.1 °F - 69.1 °F 93% 29.82 in 9.0 mi SE 12.7 mph - 0.01 in Rain , Thunderstorm Light Rain
3:00 AM 71.1 °F - 69.1 °F 93% 29.84 in 4.0 mi ESE 5.8 mph - 0.06 in Rain , Thunderstorm Light Thunderstorms and Rain
3:25 AM 71.1 °F - 69.1 °F 93% 29.84 in 6.0 mi SSE 5.8 mph - 0.10 in Rain , Thunderstorm Rain
3:36 AM 71.1 °F - 66.9 °F 87% 29.81 in 10.0 mi East 6.9 mph - 0.11 in Rain , Thunderstorm Light Thunderstorms and Rain
3:46 AM 69.8 °F - 66.2 °F 88% 29.88 in 1.5 mi WSW 28.8 mph 39.1 mph 0.32 in Rain , Thunderstorm Heavy Thunderstorms and Rain
3:48 AM 68.0 °F - 66.2 °F 94% 29.88 in 1.0 mi WSW 25.3 mph 39.1 mph 0.44 in Rain , Thunderstorm Heavy Thunderstorms and Rain
3:52 AM 66.2 °F - 62.6 °F 88% 29.88 in 0.8 mi WSW 17.3 mph 39.1 mph N/A Rain , Thunderstorm Heavy Thunderstorms and Rain
3:58 AM 66.0 °F - 64.0 °F 93% 29.86 in 1.0 mi WSW 10.4 mph 31.1 mph 0.09 in Rain , Thunderstorm Heavy Thunderstorms and Rain
4:00 AM 66.0 °F - 64.0 °F 93% 29.86 in 1.5 mi WSW 6.9 mph - 0.10 in Rain , Thunderstorm Heavy Thunderstorms and Rain
4:07 AM 66.0 °F - 64.0 °F 93% 29.86 in 3.0 mi WSW 8.1 mph - 0.13 in Rain , Thunderstorm Thunderstorms and Rain
4:26 AM 64.9 °F - 63.0 °F 93% 29.80 in 8.0 mi ENE 8.1 mph - 0.17 in Rain , Thunderstorm Light Rain
4:44 AM 64.9 °F - 64.0 °F 97% 29.77 in 10.0 mi East 9.2 mph - 0.17 in Rain Light Rain
4:52 AM 64.9 °F - 64.0 °F 97% 29.73 in 10.0 mi ENE 12.7 mph - 0.17 in Rain Light Rain
4:59 AM 64.9 °F - 64.0 °F 97% 29.75 in 10.0 mi ENE 9.2 mph - 0.00 in Rain Light Rain
5:52 AM 64.9 °F - 63.0 °F 93% 29.76 in 10.0 mi SE 8.1 mph - 0.00 in   Overcast
6:29 AM 66.0 °F - 64.0 °F 93% 29.81 in 10.0 mi SSE 13.8 mph - N/A   Overcast
6:52 AM 66.0 °F - 64.0 °F 93% 29.80 in 10.0 mi SSW 6.9 mph - 0.01 in Rain Light Rain
7:04 AM 66.0 °F - 64.0 °F 93% 29.82 in 10.0 mi SSE 9.2 mph - 0.00 in   Overcast
7:38 AM 66.0 °F - 64.0 °F 93% 29.83 in 9.0 mi South 12.7 mph - 0.00 in Rain Light Rain
7:45 AM 66.2 °F - 64.4 °F 94% 29.83 in 4.0 mi South 10.4 mph - N/A Rain Light Rain
7:49 AM 66.2 °F - 64.4 °F 94% 29.83 in 4.0 mi SW 12.7 mph - N/A Rain Light Rain
7:52 AM 66.0 °F - 64.0 °F 93% 29.81 in 6.0 mi SW 12.7 mph 20.7 mph 0.01 in Rain Light Rain
8:00 AM 68.0 °F - 64.0 °F 87% 29.83 in 10.0 mi West 12.7 mph 20.7 mph 0.00 in   Overcast
8:52 AM 69.1 °F - 64.9 °F 87% 29.82 in 10.0 mi WSW 13.8 mph - 0.00 in   Overcast
9:52 AM 73.4 °F - 64.4 °F 73% 29.86 in 10.0 mi WSW 15.0 mph - N/A   Mostly Cloudy
10:03 AM 73.0 °F - 66.0 °F 79% 29.86 in 10.0 mi West 13.8 mph - N/A   Scattered Clouds
10:32 AM 73.0 °F - 64.9 °F 76% 29.87 in 10.0 mi WSW 16.1 mph 24.2 mph N/A   Mostly Cloudy
10:52 AM 75.0 °F - 66.0 °F 73% 29.84 in 10.0 mi WSW 13.8 mph - N/A   Overcast
11:13 AM 75.9 °F - 66.0 °F 71% 29.87 in 10.0 mi WSW 16.1 mph - N/A   Overcast
11:47 AM 77.0 °F - 66.2 °F 69% 29.88 in 10.0 mi West 15.0 mph - N/A   Scattered Clouds
11:52 AM 78.1 °F - 66.0 °F 66% 29.85 in 10.0 mi West 15.0 mph - N/A   Partly Cloudy
12:52 PM 79.0 °F - 66.0 °F 64% 29.86 in 10.0 mi West 15.0 mph - N/A   Partly Cloudy
1:52 PM 81.0 °F 82.5 °F 64.0 °F 56% 29.86 in 10.0 mi NW 18.4 mph 26.5 mph N/A   Scattered Clouds
2:52 PM 81.0 °F 82.2 °F 63.0 °F 54% 29.87 in 10.0 mi NW 19.6 mph 24.2 mph N/A   Clear
3:52 PM 81.0 °F 82.5 °F 64.0 °F 56% 29.86 in 10.0 mi NNW 11.5 mph 19.6 mph N/A   Partly Cloudy
4:52 PM 81.0 °F 82.5 °F 64.0 °F 56% 29.87 in 10.0 mi NW 11.5 mph - N/A   Scattered Clouds
5:52 PM 80.1 °F 81.9 °F 64.9 °F 60% 29.88 in 10.0 mi NNW 11.5 mph - N/A   Clear
6:52 PM 78.1 °F - 63.0 °F 60% 29.89 in 10.0 mi NNW 9.2 mph - N/A   Partly Cloudy
7:52 PM 73.9 °F - 64.0 °F 71% 29.91 in 10.0 mi North 6.9 mph - N/A   Clear
8:52 PM 71.1 °F - 64.0 °F 78% 29.91 in 10.0 mi North 4.6 mph - N/A   Clear
9:52 PM 69.1 °F - 64.0 °F 84% 29.94 in 10.0 mi North 4.6 mph - N/A   Clear
10:52 PM 66.9 °F - 63.0 °F 87% 29.96 in 10.0 mi North 4.6 mph - N/A   Clear
11:52 PM 66.9 °F - 63.0 °F 87% 29.96 in 10.0 mi North 4.6 mph - N/A   Clear